| time (UTC) | temp F | wind direction | speed MPH | gust MPH | rain 1hr in | rain 24hr in | rain mn in | humidity % | barometer mb |
| 20260508141553 | 61 | 151 | 2.0 | 5.0 | 0.00 | 0.00 | 0.00 | 95 | 1016.9 |
| 20260508140058 | 61 | 152 | 1.0 | 3.0 | 0.00 | 0.00 | 0.00 | 95 | 1016.7 |
| 20260508134555 | 61 | 152 | 1.0 | 5.0 | 0.00 | 0.00 | 0.00 | 95 | 1016.7 |
| 20260508133057 | 60 | 160 | 1.0 | 5.0 | 0.00 | 0.00 | 0.00 | 95 | 1016.6 |
| 20260508131556 | 61 | 161 | 4.0 | 6.0 | 0.00 | 0.00 | 0.00 | 95 | 1016.4 |
| 20260508130103 | 61 | 169 | 5.0 | 6.0 | 0.00 | 0.00 | 0.00 | 94 | 1016.4 |
| 20260508124552 | 61 | 137 | 3.0 | 8.0 | 0.00 | 0.00 | 0.00 | 94 | 1016.3 |
| 20260508123056 | 61 | 160 | 6.0 | 8.0 | 0.00 | 0.00 | 0.00 | 94 | 1016.2 |
| 20260508121547 | 61 | 170 | 6.0 | 8.0 | 0.00 | 0.00 | 0.00 | 94 | 1016.2 |
| 20260508120048 | 61 | 161 | 6.0 | 9.0 | 0.00 | 0.00 | 0.00 | 93 | 1016.2 |
| 20260508114550 | 61 | 195 | 5.0 | 7.0 | 0.00 | 0.00 | 0.00 | 93 | 1016.1 |
| 20260508113044 | 61 | 117 | 0.0 | 3.0 | 0.00 | 0.00 | 0.00 | 93 | 1016.0 |
| 20260508111549 | 61 | 113 | 4.0 | 7.0 | 0.00 | 0.00 | 0.00 | 92 | 1016.1 |
| 20260508110043 | 61 | 140 | 3.0 | 6.0 | 0.00 | 0.00 | 0.00 | 93 | 1016.1 |
| 20260508104547 | 61 | 134 | 0.0 | 3.0 | 0.00 | 0.00 | 0.00 | 92 | 1016.1 |
| 20260508103045 | 61 | 179 | 1.0 | 3.0 | 0.00 | 0.00 | 0.00 | 93 | 1016.2 |
| 20260508101545 | 61 | 179 | 0.0 | 4.0 | 0.00 | 0.00 | 0.00 | 92 | 1016.2 |
| 20260508100038 | 61 | 136 | 3.0 | 8.0 | 0.00 | 0.00 | 0.00 | 93 | 1016.3 |
| 20260508094545 | 61 | 145 | 2.0 | 7.0 | 0.00 | 0.00 | 0.00 | 93 | 1016.3 |
| 20260508093040 | 61 | 194 | 4.0 | 7.0 | 0.00 | 0.00 | 0.00 | 93 | 1016.3 |
| 20260508091547 | 62 | 211 | 2.0 | 4.0 | 0.00 | 0.00 | 0.00 | 92 | 1016.3 |
| 20260508090051 | 61 | 90 | 2.0 | 3.0 | 0.00 | 0.00 | 0.00 | 92 | 1016.3 |
| 20260508084534 | 62 | 90 | 1.0 | 3.0 | 0.00 | 0.00 | 0.00 | 92 | 1016.4 |
| 20260508083032 | 61 | 72 | 1.0 | 6.0 | 0.00 | 0.00 | 0.00 | 92 | 1016.5 |
| 20260508081539 | 61 | 188 | 3.0 | 6.0 | 0.00 | 0.00 | 0.00 | 92 | 1016.8 |
| 20260508080032 | 62 | 167 | 7.0 | 8.0 | 0.00 | 0.00 | 0.00 | 92 | 1016.8 |
| 20260508074527 | 62 | 165 | 2.0 | 7.0 | 0.00 | 0.00 | 0.00 | 92 | 1017.0 |
| 20260508073026 | 62 | 74 | 1.0 | 5.0 | 0.00 | 0.00 | 0.00 | 92 | 1016.9 |
| 20260508071526 | 62 | 146 | 1.0 | 6.0 | 0.00 | 0.00 | 0.00 | 92 | 1017.0 |
| 20260508070036 | 62 | 142 | 0.0 | 5.0 | 0.00 | 0.00 | 0.00 | 92 | 1017.0 |
| 20260508064530 | 62 | 196 | 2.0 | 7.0 | 0.00 | 0.00 | 0.00 | 92 | 1017.1 |
| 20260508063021 | 62 | 168 | 4.0 | 6.0 | 0.00 | 0.00 | 0.00 | 92 | 1017.1 |
| 20260508061523 | 62 | 141 | 0.0 | 3.0 | 0.00 | 0.00 | 0.00 | 92 | 1017.2 |
| 20260508060025 | 62 | 128 | 1.0 | 5.0 | 0.00 | 0.00 | 0.00 | 92 | 1017.2 |
| 20260508054528 | 62 | 186 | 3.0 | 7.0 | 0.00 | 0.00 | 0.00 | 92 | 1017.3 |
| 20260508053019 | 62 | 229 | 4.0 | 8.0 | 0.00 | 0.00 | 0.00 | 92 | 1017.1 |
| 20260508051519 | 62 | 194 | 2.0 | 4.0 | 0.00 | 0.00 | 0.00 | 92 | 1017.1 |
| 20260508050018 | 62 | 194 | 5.0 | 6.0 | 0.00 | 0.00 | 0.00 | 92 | 1017.1 |
| 20260508044519 | 62 | 196 | 6.0 | 8.0 | 0.00 | 0.01 | 0.00 | 92 | 1017.0 |
| 20260508043018 | 62 | 188 | 4.0 | 6.0 | 0.00 | 0.01 | 0.00 | 92 | 1016.9 |
| 20260508041516 | 62 | 163 | 4.0 | 10.0 | 0.00 | 0.01 | 0.00 | 92 | 1016.6 |
| 20260508040027 | 62 | 194 | 4.0 | 6.0 | 0.00 | 0.01 | 0.00 | 92 | 1016.3 |
| 20260508034518 | 62 | 190 | 3.0 | 5.0 | 0.00 | 0.01 | 0.00 | 92 | 1016.1 |
| 20260508033015 | 62 | 213 | 5.0 | 6.0 | 0.00 | 0.01 | 0.00 | 92 | 1015.9 |
| 20260508031515 | 62 | 210 | 5.0 | 8.0 | 0.00 | 0.01 | 0.00 | 92 | 1015.8 |
| 20260508030022 | 62 | 291 | 3.0 | 7.0 | 0.00 | 0.01 | 0.00 | 92 | 1015.6 |
| 20260508024519 | 62 | 248 | 5.0 | 7.0 | 0.00 | 0.01 | 0.00 | 92 | 1015.4 |
| 20260508023018 | 61 | 256 | 3.0 | 8.0 | 0.00 | 0.01 | 0.00 | 91 | 1015.4 |
| 20260508021519 | 62 | 274 | 4.0 | 8.0 | 0.00 | 0.01 | 0.00 | 91 | 1015.3 |
| 20260508020012 | 62 | 250 | 3.0 | 7.0 | 0.00 | 0.01 | 0.00 | 91 | 1015.3 |
| 20260508014518 | 62 | 261 | 7.0 | 9.0 | 0.00 | 0.01 | 0.00 | 91 | 1015.3 |
| 20260508013010 | 62 | 292 | 6.0 | 9.0 | 0.00 | 0.01 | 0.00 | 91 | 1015.2 |
| 20260508011514 | 62 | 243 | 5.0 | 9.0 | 0.00 | 0.01 | 0.00 | 90 | 1015.3 |
| 20260508010009 | 62 | 254 | 6.0 | 9.0 | 0.00 | 0.01 | 0.00 | 90 | 1015.3 |
| 20260508004509 | 62 | 244 | 2.0 | 6.0 | 0.00 | 0.01 | 0.00 | 90 | 1015.3 |
| 20260508003007 | 62 | 242 | 5.0 | 11.0 | 0.00 | 0.01 | 0.00 | 90 | 1015.3 |
| 20260508001520 | 62 | 209 | 5.0 | 9.0 | 0.00 | 0.01 | 0.00 | 90 | 1015.3 |
| 20260508000007 | 62 | 309 | 6.0 | 11.0 | 0.00 | 0.01 | 0.00 | 90 | 1015.4 |
| 20260507234506 | 62 | 281 | 7.0 | 9.0 | 0.00 | 0.01 | 0.00 | 90 | 1015.4 |
| 20260507233016 | 62 | 250 | 3.0 | 10.0 | 0.00 | 0.01 | 0.00 | 90 | 1015.3 |
| 20260507231510 | 63 | 237 | 4.0 | 7.0 | 0.00 | 0.01 | 0.00 | 90 | 1015.4 |
| 20260507230015 | 62 | 219 | 3.0 | 10.0 | 0.00 | 0.01 | 0.00 | 90 | 1015.3 |
| 20260507224503 | 62 | 237 | 6.0 | 10.0 | 0.00 | 0.01 | 0.00 | 90 | 1015.4 |
| 20260507223001 | 62 | 242 | 8.0 | 10.0 | 0.00 | 0.01 | 0.00 | 90 | 1015.5 |
| 20260507221559 | 62 | 235 | 8.0 | 11.0 | 0.00 | 0.01 | 0.00 | 90 | 1015.6 |
| 20260507220059 | 62 | 240 | 8.0 | 12.0 | 0.00 | 0.01 | 0.00 | 90 | 1015.9 |
| 20260507214558 | 62 | 235 | 9.0 | 12.0 | 0.00 | 0.01 | 0.00 | 90 | 1015.9 |
| 20260507213100 | 62 | 238 | 9.0 | 12.0 | 0.00 | 0.01 | 0.00 | 90 | 1016.2 |
| 20260507211555 | 62 | 222 | 10.0 | 12.0 | 0.00 | 0.01 | 0.00 | 90 | 1016.2 |
| 20260507210054 | 62 | 240 | 12.0 | 14.0 | 0.00 | 0.01 | 0.00 | 90 | 1016.2 |
| 20260507204552 | 62 | 232 | 11.0 | 12.0 | 0.00 | 0.01 | 0.00 | 90 | 1016.3 |
| 20260507203050 | 62 | 221 | 11.0 | 14.0 | 0.00 | 0.01 | 0.00 | 90 | 1016.3 |
| 20260507201551 | 62 | 225 | 11.0 | 12.0 | 0.00 | 0.01 | 0.00 | 90 | 1016.5 |
| 20260507200049 | 62 | 225 | 8.0 | 11.0 | 0.00 | 0.01 | 0.00 | 89 | 1016.5 |
| 20260507194548 | 62 | 224 | 10.0 | 11.0 | 0.00 | 0.01 | 0.00 | 89 | 1016.4 |
| 20260507193047 | 62 | 218 | 6.0 | 10.0 | 0.00 | 0.01 | 0.00 | 90 | 1016.5 |
| 20260507191546 | 62 | 232 | 9.0 | 12.0 | 0.00 | 0.01 | 0.00 | 89 | 1016.7 |
| 20260507190044 | 62 | 228 | 9.0 | 12.0 | 0.00 | 0.01 | 0.00 | 89 | 1016.9 |
| 20260507184544 | 62 | 227 | 8.0 | 12.0 | 0.00 | 0.01 | 0.00 | 90 | 1017.1 |
| 20260507183051 | 62 | 242 | 9.0 | 11.0 | 0.00 | 0.01 | 0.00 | 90 | 1017.2 |
| 20260507181542 | 62 | 233 | 6.0 | 9.0 | 0.00 | 0.01 | 0.00 | 89 | 1017.3 |
| 20260507180048 | 62 | 248 | 7.0 | 10.0 | 0.00 | 0.01 | 0.00 | 89 | 1017.2 |
| 20260507174540 | 62 | 239 | 8.0 | 10.0 | 0.00 | 0.02 | 0.00 | 89 | 1017.3 |
| 20260507173053 | 62 | 233 | 4.0 | 7.0 | 0.00 | 0.02 | 0.00 | 89 | 1017.2 |
| 20260507171537 | 62 | 247 | 5.0 | 9.0 | 0.00 | 0.02 | 0.00 | 90 | 1017.2 |
| 20260507170045 | 62 | 244 | 5.0 | 7.0 | 0.00 | 0.02 | 0.00 | 89 | 1017.3 |
| 20260507164531 | 63 | 277 | 3.0 | 7.0 | 0.00 | 0.02 | 0.00 | 89 | 1017.2 |
| 20260507163027 | 63 | 41 | 2.0 | 6.0 | 0.00 | 0.02 | 0.00 | 90 | 1017.5 |
| 20260507161525 | 62 | 302 | 3.0 | 7.0 | 0.00 | 0.02 | 0.00 | 90 | 1017.4 |
| 20260507160024 | 62 | 264 | 3.0 | 8.0 | 0.00 | 0.02 | 0.00 | 91 | 1017.5 |
| 20260507154519 | 62 | 313 | 2.0 | 5.0 | 0.00 | 0.02 | 0.00 | 91 | 1017.6 |
| 20260507153017 | 61 | 286 | 1.0 | 5.0 | 0.00 | 0.02 | 0.00 | 92 | 1017.4 |
| 20260507151519 | 61 | 309 | 3.0 | 5.0 | 0.00 | 0.02 | 0.00 | 92 | 1017.3 |
| 20260507150017 | 61 | 284 | 5.0 | 7.0 | 0.00 | 0.02 | 0.00 | 92 | 1017.3 |
| 20260507144517 | 61 | 293 | 1.0 | 3.0 | 0.00 | 0.02 | 0.00 | 92 | 1017.2 |
| 20260507143016 | 60 | 40 | 2.0 | 4.0 | 0.00 | 0.02 | 0.00 | 92 | 1017.0 |